QPF
0.01 0.01 0.02 0.02 0.01 0.01 0.01 0.01 0.01 0.02 0.01 0.01 0.00 0.01 0.03 0.02 0.02 0.05 0.03 0.01 0.04 0.07 0.02 0.00 0.00 0.01 0.02 0.02 0.01 0.01 0.01 0.02 0.03 0.04 0.04 0.04 0.04 0.04 0.04 0.04 0.03 0.04 0.05 0.05
0.02 0.02 0.00 0.01 0.01 0.01 0.00 0.00 0.01 0.01 0.01 0.01 0.00 0.00 0.01 0.02 0.01 0.03 0.05 0.02 0.02 0.02 0.01 0.00 0.00 0.01 0.01 0.01 0.01 0.01 0.01 0.02 0.02 0.03 0.03 0.03 0.03 0.04 0.04 0.04 0.05 0.06 0.06 0.06
0.01 0.02 0.02 0.02 0.01 0.01 0.01 0.00 0.00 0.00 0.01 0.00 0.00 0.00 0.00 0.01 0.01 0.01 0.03 0.03 0.03 0.03 0.01 0.00 0.00 0.01 0.01 0.01 0.01 0.01 0.01 0.02 0.02 0.02 0.02 0.03 0.03 0.04 0.04 0.04 0.06 0.06 0.07 0.08
0.00 0.00 0.01 0.02 0.00 0.00 0.00 0.00 0.00 0.00 0.00 0.00 0.00 0.01 0.00 0.00 0.01 0.01 0.02 0.04 0.05 0.05 0.02 0.00 0.00 0.00 0.01 0.00 0.01 0.01 0.02 0.02 0.03 0.03 0.03 0.03 0.03 0.04 0.04 0.05 0.05 0.05 0.05 0.05
0.00 0.00 0.01 0.01 0.00 0.00 0.01 0.01 0.01 0.01 0.01 0.00 0.01 0.03 0.02 0.01 0.01 0.00 0.01 0.03 0.04 0.06 0.03 0.02 0.00 0.00 0.01 0.01 0.02 0.02 0.03 0.03 0.03 0.03 0.03 0.03 0.03 0.04 0.04 0.05 0.04 0.04 0.03 0.03
0.01 0.01 0.01 0.01 0.00 0.00 0.01 0.02 0.01 0.01 0.01 0.01 0.01 0.04 0.06 0.02 0.01 0.00 0.01 0.01 0.02 0.03 0.04 0.03 0.01 0.00 0.01 0.01 0.02 0.02 0.02 0.02 0.02 0.02 0.02 0.02 0.02 0.02 0.03 0.03 0.03 0.04 0.03 0.03
0.02 0.01 0.01 0.00 0.00 0.00 0.01 0.02 0.01 0.01 0.01 0.01 0.03 0.02 0.03 0.03 0.01 0.01 0.00 0.00 0.00 0.01 0.01 0.02 0.02 0.01 0.01 0.01 0.01 0.01 0.01 0.01 0.01 0.01 0.02 0.02 0.03 0.02 0.02 0.03 0.03 0.03 0.04 0.04
0.00 0.01 0.01 0.00 0.00 0.00 0.01 0.01 0.01 0.01 0.00 0.01 0.01 0.01 0.00 0.01 0.01 0.01 0.00 0.00 0.01 0.01 0.01 0.02 0.02 0.02 0.02 0.02 0.01 0.01 0.01 0.01 0.02 0.02 0.02 0.02 0.02 0.02 0.02 0.02 0.03 0.03 0.04 0.04
0.00 0.01 0.00 0.00 0.00 0.00 0.00 0.00 0.00 0.00 0.00 0.01 0.01 0.01 0.01 0.01 0.01 0.01 0.01 0.01 0.01 0.01 0.01 0.01 0.01 0.02 0.02 0.02 0.01 0.01 0.02 0.02 0.02 0.02 0.02 0.02 0.02 0.02 0.03 0.03 0.03 0.03 0.03 0.03
0.01 0.00 0.00 0.00 0.01 0.01 0.01 0.00 0.00 0.00 0.00 0.00 0.00 0.00 0.00 0.01 0.01 0.01 0.01 0.01 0.01 0.01 0.01 0.01 0.01 0.02 0.02 0.02 0.02 0.02 0.02 0.02 0.03 0.02 0.02 0.03 0.03 0.03 0.03 0.03 0.03 0.03 0.03 0.02
0.02 0.02 0.00 0.00 0.01 0.01 0.00 0.00 0.00 0.00 0.00 0.00 0.00 0.00 0.00 0.01 0.01 0.01 0.02 0.02 0.02 0.02 0.03 0.03 0.02 0.02 0.02 0.02 0.02 0.02 0.03 0.03 0.03 0.03 0.03 0.03 0.04 0.03 0.03 0.03 0.03 0.02 0.02 0.02
0.05 0.04 0.02 0.01 0.00 0.00 0.00 0.01 0.01 0.01 0.01 0.00 0.01 0.01 0.01 0.01 0.01 0.01 0.02 0.03 0.04 0.04 0.05 0.07 0.09 0.06 0.04 0.04 0.03 0.03 0.03 0.03 0.03 0.03 0.03 0.02 0.02 0.02 0.01 0.02 0.02 0.02 0.02 0.02
0.03 0.02 0.01 0.01 0.01 0.01 0.01 0.01 0.01 0.01 0.01 0.01 0.01 0.01 0.01 0.02 0.01 0.01 0.02 0.04 0.05 0.05 0.06 0.08 0.09 0.08 0.06 0.05 0.04 0.04 0.03 0.03 0.03 0.02 0.03 0.03 0.02 0.02 0.03 0.03 0.02 0.01 0.01 0.01
0.01 0.00 0.00 0.01 0.01 0.01 0.01 0.00 0.00 0.00 0.00 0.01 0.01 0.01 0.01 0.02 0.02 0.03 0.04 0.04 0.05 0.06 0.08 0.10 0.10 0.08 0.05 0.04 0.04 0.04 0.03 0.04 0.05 0.04 0.03 0.03 0.03 0.04 0.05 0.05 0.03 0.02 0.02 0.02
0.01 0.01 0.01 0.01 0.01 0.01 0.01 0.00 0.00 0.01 0.01 0.01 0.01 0.01 0.01 0.02 0.02 0.02 0.02 0.02 0.04 0.05 0.05 0.05 0.06 0.06 0.05 0.04 0.05 0.04 0.04 0.05 0.05 0.04 0.04 0.04 0.05 0.05 0.06 0.05 0.05 0.05 0.04 0.03
0.00 0.01 0.01 0.01 0.01 0.01 0.01 0.01 0.01 0.01 0.01 0.01 0.01 0.01 0.01 0.01 0.02 0.02 0.02 0.03 0.04 0.04 0.03 0.03 0.04 0.05 0.05 0.05 0.05 0.05 0.06 0.06 0.05 0.05 0.04 0.05 0.06 0.06 0.06 0.06 0.07 0.06 0.06 0.05
0.00 0.01 0.01 0.01 0.01 0.01 0.01 0.01 0.01 0.01 0.01 0.01 0.01 0.02 0.03 0.03 0.03 0.03 0.03 0.04 0.04 0.04 0.04 0.03 0.04 0.04 0.04 0.04 0.04 0.04 0.04 0.05 0.05 0.04 0.05 0.05 0.06 0.07 0.09 0.10 0.11 0.10 0.08 0.06
0.00 0.01 0.01 0.01 0.01 0.01 0.01 0.01 0.01 0.01 0.01 0.01 0.02 0.04 0.06 0.07 0.07 0.07 0.06 0.05 0.05 0.05 0.05 0.04 0.03 0.03 0.04 0.03 0.03 0.03 0.03 0.04 0.05 0.04 0.05 0.07 0.08 0.11 0.12 0.14 0.14 0.12 0.10 0.08
0.00 0.01 0.01 0.02 0.02 0.02 0.02 0.01 0.01 0.01 0.02 0.02 0.04 0.06 0.08 0.08 0.08 0.06 0.06 0.07 0.07 0.07 0.07 0.07 0.05 0.03 0.04 0.04 0.04 0.04 0.03 0.03 0.04 0.03 0.04 0.06 0.07 0.07 0.08 0.09 0.09 0.07 0.07 0.08
0.00 0.01 0.02 0.02 0.01 0.02 0.01 0.01 0.02 0.03 0.03 0.03 0.04 0.06 0.08 0.08 0.07 0.08 0.07 0.07 0.09 0.11 0.10 0.09 0.09 0.09 0.06 0.05 0.04 0.04 0.03 0.04 0.04 0.03 0.03 0.03 0.04 0.05 0.05 0.04 0.04 0.05 0.06 0.07
0.01 0.01 0.04 0.05 0.03 0.02 0.01 0.01 0.03 0.03 0.02 0.03 0.04 0.04 0.05 0.05 0.06 0.10 0.10 0.07 0.06 0.07 0.06 0.06 0.07 0.08 0.07 0.05 0.03 0.03 0.03 0.04 0.05 0.05 0.05 0.06 0.06 0.05 0.04 0.04 0.04 0.04 0.04 0.04
0.02 0.02 0.05 0.09 0.08 0.05 0.03 0.03 0.03 0.02 0.02 0.02 0.02 0.03 0.03 0.04 0.05 0.08 0.08 0.07 0.05 0.04 0.04 0.04 0.04 0.06 0.06 0.05 0.03 0.03 0.04 0.04 0.04 0.04 0.04 0.04 0.04 0.04 0.03 0.03 0.03 0.03 0.03 0.02
0.04 0.04 0.06 0.13 0.17 0.14 0.10 0.05 0.03 0.03 0.02 0.03 0.03 0.03 0.04 0.04 0.05 0.07 0.07 0.05 0.04 0.04 0.03 0.04 0.05 0.05 0.04 0.04 0.04 0.03 0.03 0.03 0.03 0.02 0.03 0.03 0.03 0.03 0.03 0.03 0.03 0.02 0.02 0.02
0.06 0.05 0.06 0.10 0.17 0.18 0.18 0.13 0.06 0.04 0.03 0.04 0.05 0.05 0.04 0.05 0.05 0.04 0.05 0.05 0.03 0.02 0.02 0.03 0.03 0.02 0.02 0.02 0.02 0.02 0.02 0.03 0.03 0.02 0.02 0.02 0.02 0.02 0.02 0.02 0.02 0.02 0.02 0.01
0.06 0.06 0.06 0.07 0.12 0.16 0.17 0.18 0.11 0.07 0.05 0.04 0.03 0.03 0.03 0.04 0.04 0.04 0.06 0.05 0.03 0.02 0.02 0.03 0.02 0.01 0.01 0.01 0.02 0.02 0.01 0.01 0.01 0.01 0.01 0.01 0.01 0.01 0.01 0.02 0.02 0.02 0.02 0.01
0.09 0.09 0.07 0.06 0.08 0.10 0.11 0.12 0.10 0.09 0.07 0.05 0.03 0.02 0.02 0.02 0.03 0.05 0.08 0.07 0.03 0.03 0.03 0.03 0.02 0.01 0.01 0.01 0.01 0.01 0.01 0.01 0.01 0.00 0.00 0.01 0.01 0.01 0.01 0.01 0.01 0.01 0.01 0.01
0.09 0.11 0.10 0.07 0.07 0.07 0.07 0.07 0.06 0.06 0.06 0.05 0.03 0.02 0.02 0.03 0.03 0.05 0.06 0.07 0.04 0.03 0.03 0.02 0.01 0.01 0.01 0.01 0.01 0.01 0.01 0.01 0.01 0.01 0.01 0.01 0.01 0.01 0.01 0.01 0.01 0.00 0.01 0.01
MSLP
1008.72 1008.54 1008.42 1008.40 1008.51 1008.75 1009.07 1009.45 1009.81 1010.10 1010.26 1010.28 1010.14 1009.86 1009.48 1009.04 1008.59 1008.16 1007.78 1007.46 1007.18 1006.94 1006.70 1006.45 1006.18 1005.87 1005.55 1005.21 1004.89 1004.59 1004.34 1004.13 1003.97 1003.86 1003.77 1003.70 1003.65 1003.59 1003.55 1003.52 1003.53 1003.57 1003.67 1003.82
1009.19 1009.03 1008.87 1008.77 1008.76 1008.85 1009.03 1009.27 1009.54 1009.77 1009.94 1010.00 1009.95 1009.79 1009.53 1009.22 1008.86 1008.51 1008.17 1007.86 1007.57 1007.30 1007.03 1006.74 1006.42 1006.08 1005.71 1005.33 1004.94 1004.56 1004.22 1003.90 1003.63 1003.39 1003.18 1002.99 1002.83 1002.68 1002.55 1002.45 1002.39 1002.37 1002.41 1002.51
1009.64 1009.51 1009.34 1009.19 1009.10 1009.07 1009.12 1009.24 1009.39 1009.56 1009.70 1009.78 1009.79 1009.72 1009.57 1009.36 1009.11 1008.83 1008.54 1008.24 1007.95 1007.66 1007.36 1007.03 1006.69 1006.31 1005.90 1005.47 1005.03 1004.59 1004.16 1003.75 1003.36 1003.00 1002.66 1002.35 1002.07 1001.81 1001.58 1001.38 1001.23 1001.14 1001.10 1001.12
1010.03 1009.95 1009.81 1009.64 1009.48 1009.37 1009.31 1009.32 1009.38 1009.46 1009.56 1009.65 1009.69 1009.68 1009.62 1009.49 1009.32 1009.10 1008.85 1008.58 1008.29 1007.98 1007.65 1007.30 1006.92 1006.51 1006.08 1005.62 1005.13 1004.64 1004.14 1003.65 1003.16 1002.70 1002.24 1001.81 1001.41 1001.03 1000.69 1000.39 1000.14 999.95 999.82 999.77
1010.33 1010.30 1010.19 1010.02 1009.85 1009.68 1009.54 1009.46 1009.43 1009.45 1009.50 1009.56 1009.62 1009.65 1009.64 1009.58 1009.46 1009.30 1009.08 1008.83 1008.54 1008.21 1007.86 1007.49 1007.08 1006.66 1006.20 1005.72 1005.22 1004.69 1004.15 1003.59 1003.03 1002.47 1001.91 1001.37 1000.85 1000.36 999.91 999.51 999.16 998.88 998.68 998.54
1010.51 1010.51 1010.44 1010.29 1010.11 1009.91 1009.73 1009.58 1009.48 1009.43 1009.44 1009.47 1009.53 1009.58 1009.60 1009.58 1009.51 1009.38 1009.19 1008.94 1008.64 1008.31 1007.94 1007.55 1007.14 1006.70 1006.25 1005.77 1005.26 1004.72 1004.16 1003.56 1002.94 1002.30 1001.66 1001.01 1000.39 999.79 999.24 998.75 998.33 997.97 997.70 997.52
1010.54 1010.57 1010.52 1010.40 1010.23 1010.02 1009.81 1009.62 1009.47 1009.37 1009.33 1009.34 1009.38 1009.44 1009.47 1009.48 1009.43 1009.31 1009.13 1008.89 1008.59 1008.25 1007.87 1007.47 1007.06 1006.64 1006.20 1005.74 1005.24 1004.71 1004.14 1003.52 1002.86 1002.15 1001.43 1000.70 999.98 999.29 998.66 998.09 997.60 997.21 996.90 996.70
1010.44 1010.49 1010.46 1010.36 1010.20 1010.00 1009.77 1009.56 1009.38 1009.24 1009.17 1009.15 1009.17 1009.21 1009.24 1009.25 1009.20 1009.09 1008.91 1008.66 1008.36 1008.01 1007.64 1007.25 1006.86 1006.46 1006.05 1005.62 1005.15 1004.64 1004.08 1003.44 1002.74 1001.98 1001.19 1000.37 999.56 998.79 998.09 997.46 996.94 996.53 996.24 996.05
1010.26 1010.31 1010.31 1010.23 1010.09 1009.89 1009.67 1009.44 1009.24 1009.07 1008.96 1008.91 1008.90 1008.91 1008.93 1008.91 1008.86 1008.74 1008.55 1008.30 1007.99 1007.65 1007.28 1006.91 1006.54 1006.18 1005.81 1005.42 1005.00 1004.51 1003.95 1003.31 1002.57 1001.76 1000.89 999.99 999.10 998.25 997.48 996.81 996.28 995.88 995.62 995.50
1010.07 1010.13 1010.14 1010.09 1009.97 1009.79 1009.57 1009.33 1009.11 1008.92 1008.77 1008.68 1008.63 1008.61 1008.58 1008.54 1008.46 1008.31 1008.11 1007.84 1007.53 1007.19 1006.84 1006.50 1006.17 1005.84 1005.52 1005.18 1004.79 1004.33 1003.78 1003.11 1002.34 1001.47 1000.52 999.53 998.55 997.63 996.80 996.11 995.57 995.20 995.00 994.96
1009.94 1010.02 1010.06 1010.03 1009.93 1009.77 1009.55 1009.32 1009.08 1008.86 1008.67 1008.54 1008.44 1008.36 1008.29 1008.20 1008.07 1007.89 1007.66 1007.37 1007.06 1006.72 1006.39 1006.07 1005.77 1005.50 1005.22 1004.92 1004.57 1004.13 1003.57 1002.89 1002.07 1001.14 1000.11 999.04 997.97 996.98 996.09 995.37 994.83 994.49 994.36 994.42
1009.94 1010.05 1010.12 1010.12 1010.05 1009.90 1009.70 1009.45 1009.19 1008.94 1008.72 1008.53 1008.37 1008.24 1008.10 1007.95 1007.77 1007.54 1007.27 1006.96 1006.63 1006.29 1005.97 1005.67 1005.41 1005.17 1004.93 1004.67 1004.35 1003.93 1003.37 1002.67 1001.82 1000.83 999.73 998.58 997.44 996.37 995.44 994.68 994.14 993.83 993.75 993.88
1010.07 1010.23 1010.34 1010.38 1010.33 1010.20 1010.00 1009.75 1009.47 1009.19 1008.93 1008.68 1008.46 1008.26 1008.06 1007.84 1007.59 1007.30 1006.98 1006.64 1006.28 1005.93 1005.61 1005.33 1005.09 1004.88 1004.68 1004.45 1004.16 1003.76 1003.21 1002.51 1001.64 1000.62 999.48 998.27 997.08 995.95 994.97 994.18 993.63 993.33 993.28 993.46
1010.34 1010.55 1010.70 1010.77 1010.74 1010.62 1010.42 1010.16 1009.87 1009.56 1009.26 1008.97 1008.69 1008.41 1008.14 1007.85 1007.53 1007.18 1006.80 1006.40 1006.01 1005.64 1005.30 1005.02 1004.79 1004.60 1004.43 1004.24 1003.98 1003.62 1003.11 1002.43 1001.58 1000.56 999.42 998.20 996.99 995.84 994.83 994.02 993.45 993.14 993.09 993.28
1010.69 1010.94 1011.12 1011.21 1011.19 1011.08 1010.88 1010.62 1010.31 1009.98 1009.64 1009.31 1008.98 1008.65 1008.30 1007.94 1007.55 1007.13 1006.68 1006.23 1005.78 1005.37 1005.01 1004.72 1004.49 1004.31 1004.17 1004.02 1003.81 1003.50 1003.05 1002.44 1001.65 1000.69 999.60 998.42 997.24 996.11 995.11 994.29 993.70 993.37 993.29 993.45
1011.05 1011.33 1011.52 1011.61 1011.60 1011.48 1011.28 1011.02 1010.70 1010.36 1010.00 1009.63 1009.26 1008.88 1008.48 1008.05 1007.59 1007.10 1006.58 1006.06 1005.56 1005.09 1004.69 1004.37 1004.13 1003.97 1003.85 1003.74 1003.59 1003.36 1003.01 1002.50 1001.82 1000.98 1000.00 998.93 997.83 996.77 995.81 995.01 994.42 994.06 993.95 994.05
1011.37 1011.64 1011.82 1011.90 1011.88 1011.75 1011.55 1011.28 1010.96 1010.62 1010.25 1009.87 1009.48 1009.06 1008.62 1008.14 1007.61 1007.05 1006.46 1005.86 1005.29 1004.77 1004.32 1003.96 1003.70 1003.53 1003.43 1003.37 1003.29 1003.16 1002.93 1002.56 1002.04 1001.37 1000.55 999.64 998.68 997.74 996.86 996.12 995.55 995.18 995.02 995.05
1011.61 1011.84 1011.99 1012.03 1011.98 1011.84 1011.63 1011.36 1011.06 1010.72 1010.37 1009.99 1009.59 1009.16 1008.68 1008.15 1007.58 1006.95 1006.29 1005.63 1004.98 1004.39 1003.89 1003.48 1003.19 1003.01 1002.92 1002.90 1002.90 1002.87 1002.78 1002.57 1002.23 1001.75 1001.14 1000.43 999.65 998.86 998.12 997.46 996.94 996.57 996.38 996.35
1011.73 1011.91 1012.00 1012.00 1011.91 1011.75 1011.54 1011.28 1010.98 1010.67 1010.34 1009.98 1009.59 1009.15 1008.66 1008.11 1007.50 1006.82 1006.11 1005.38 1004.67 1004.02 1003.45 1002.99 1002.66 1002.46 1002.38 1002.38 1002.44 1002.51 1002.54 1002.49 1002.33 1002.06 1001.66 1001.16 1000.58 999.97 999.38 998.83 998.38 998.04 997.84 997.77
1011.75 1011.86 1011.88 1011.83 1011.70 1011.52 1011.30 1011.06 1010.79 1010.51 1010.21 1009.88 1009.51 1009.09 1008.60 1008.04 1007.40 1006.70 1005.95 1005.17 1004.41 1003.70 1003.08 1002.57 1002.20 1001.97 1001.88 1001.89 1001.99 1002.12 1002.24 1002.32 1002.32 1002.22 1002.01 1001.71 1001.33 1000.90 1000.46 1000.04 999.68 999.40 999.22 999.14
1011.68 1011.71 1011.67 1011.57 1011.41 1011.22 1011.00 1010.77 1010.53 1010.28 1010.02 1009.73 1009.39 1009.00 1008.53 1007.98 1007.34 1006.63 1005.86 1005.06 1004.27 1003.53 1002.87 1002.32 1001.91 1001.65 1001.52 1001.53 1001.62 1001.78 1001.95 1002.11 1002.22 1002.25 1002.19 1002.05 1001.83 1001.56 1001.26 1000.97 1000.70 1000.49 1000.35 1000.28
1011.54 1011.50 1011.41 1011.26 1011.08 1010.88 1010.66 1010.45 1010.24 1010.03 1009.80 1009.55 1009.26 1008.90 1008.46 1007.94 1007.33 1006.63 1005.88 1005.09 1004.30 1003.55 1002.88 1002.31 1001.87 1001.56 1001.40 1001.37 1001.44 1001.58 1001.76 1001.94 1002.09 1002.19 1002.22 1002.18 1002.09 1001.94 1001.76 1001.57 1001.40 1001.26 1001.17 1001.14
1011.35 1011.26 1011.12 1010.94 1010.74 1010.54 1010.33 1010.14 1009.95 1009.77 1009.58 1009.36 1009.11 1008.79 1008.39 1007.91 1007.35 1006.70 1005.99 1005.25 1004.50 1003.77 1003.11 1002.54 1002.09 1001.76 1001.55 1001.47 1001.48 1001.57 1001.71 1001.86 1002.00 1002.11 1002.18 1002.19 1002.16 1002.09 1001.99 1001.89 1001.79 1001.73 1001.70 1001.72
1011.12 1010.99 1010.82 1010.62 1010.41 1010.20 1010.00 1009.81 1009.64 1009.48 1009.31 1009.13 1008.91 1008.63 1008.29 1007.86 1007.36 1006.78 1006.15 1005.48 1004.80 1004.14 1003.52 1002.98 1002.53 1002.18 1001.94 1001.81 1001.76 1001.78 1001.84 1001.93 1002.02 1002.09 1002.14 1002.16 1002.15 1002.11 1002.07 1002.02 1001.99 1001.99 1002.02 1002.10
1010.85 1010.69 1010.50 1010.29 1010.07 1009.85 1009.65 1009.47 1009.30 1009.15 1008.99 1008.83 1008.63 1008.39 1008.09 1007.73 1007.30 1006.81 1006.27 1005.70 1005.11 1004.54 1003.99 1003.51 1003.09 1002.75 1002.49 1002.31 1002.20 1002.15 1002.13 1002.14 1002.15 1002.16 1002.17 1002.16 1002.15 1002.13 1002.11 1002.11 1002.13 1002.18 1002.26 1002.39
1010.54 1010.36 1010.16 1009.93 1009.70 1009.48 1009.27 1009.08 1008.90 1008.74 1008.58 1008.42 1008.24 1008.03 1007.77 1007.47 1007.11 1006.71 1006.27 1005.81 1005.33 1004.86 1004.41 1004.00 1003.63 1003.32 1003.06 1002.86 1002.71 1002.59 1002.50 1002.43 1002.38 1002.33 1002.29 1002.25 1002.22 1002.21 1002.22 1002.25 1002.31 1002.40 1002.53 1002.71
1010.18 1009.99 1009.78 1009.54 1009.31 1009.07 1008.85 1008.64 1008.45 1008.27 1008.10 1007.92 1007.74 1007.54 1007.31 1007.06 1006.77 1006.45 1006.10 1005.74 1005.37 1005.01 1004.66 1004.33 1004.03 1003.76 1003.53 1003.32 1003.15 1003.00 1002.86 1002.75 1002.64 1002.56 1002.49 1002.43 1002.41 1002.41 1002.44 1002.50 1002.60 1002.74 1002.92 1003.14
Thickness
5817 5823 5824 5820 5821 5826 5820 5817 5807 5810 5809 5815 5821 5822 5820 5818 5819 5816 5813 5810 5807 5802 5800 5799 5796 5794 5793 5790 5788 5784 5779 5774 5770 5768 5765 5761 5757 5755 5752 5749 5747 5743 5740 5736
5803 5815 5819 5814 5820 5824 5821 5821 5816 5814 5808 5825 5823 5821 5816 5812 5809 5806 5804 5802 5799 5796 5794 5793 5791 5789 5786 5784 5782 5779 5773 5768 5766 5763 5759 5755 5752 5749 5746 5744 5741 5738 5735 5730
5785 5802 5802 5793 5813 5817 5817 5821 5818 5807 5810 5822 5816 5811 5807 5805 5804 5802 5799 5796 5793 5789 5788 5787 5786 5784 5780 5778 5776 5772 5767 5763 5760 5756 5752 5749 5747 5743 5740 5737 5734 5731 5727 5723
5782 5782 5762 5799 5828 5826 5816 5816 5823 5819 5818 5816 5811 5810 5810 5807 5800 5796 5794 5791 5788 5785 5783 5783 5782 5779 5776 5772 5768 5764 5759 5755 5752 5749 5745 5742 5739 5736 5733 5730 5726 5723 5719 5716
5770 5764 5773 5796 5814 5815 5803 5799 5813 5812 5809 5806 5808 5802 5794 5799 5798 5793 5790 5786 5783 5782 5779 5777 5774 5771 5767 5762 5759 5755 5750 5747 5744 5741 5738 5735 5732 5729 5727 5723 5719 5716 5713 5710
5762 5753 5753 5783 5810 5820 5805 5780 5804 5805 5800 5797 5794 5776 5773 5788 5790 5787 5784 5781 5778 5776 5772 5767 5765 5762 5756 5752 5749 5745 5743 5740 5737 5734 5731 5727 5725 5722 5720 5716 5713 5710 5706 5703
5756 5752 5768 5794 5807 5804 5768 5765 5792 5795 5793 5789 5779 5775 5778 5781 5778 5777 5775 5773 5771 5767 5762 5758 5756 5752 5746 5743 5740 5738 5737 5733 5730 5727 5724 5722 5718 5715 5711 5708 5705 5702 5699 5696
5753 5746 5754 5789 5790 5775 5768 5782 5786 5785 5786 5780 5777 5777 5775 5771 5767 5766 5764 5763 5760 5756 5752 5750 5748 5743 5737 5733 5733 5732 5729 5725 5722 5720 5717 5715 5710 5706 5703 5700 5697 5694 5690 5687
5751 5753 5770 5780 5775 5777 5779 5774 5777 5778 5778 5774 5769 5767 5764 5760 5758 5756 5754 5752 5750 5746 5742 5740 5737 5733 5727 5725 5725 5722 5719 5716 5713 5711 5708 5706 5701 5697 5695 5692 5689 5686 5682 5678
5748 5758 5765 5770 5771 5771 5770 5769 5771 5771 5769 5766 5760 5757 5753 5750 5747 5744 5743 5741 5739 5735 5730 5727 5726 5724 5720 5718 5716 5712 5709 5706 5704 5702 5699 5697 5693 5690 5687 5683 5680 5677 5673 5669
5737 5744 5751 5756 5758 5759 5761 5763 5762 5760 5758 5755 5751 5746 5743 5740 5736 5734 5732 5730 5729 5725 5720 5717 5716 5714 5712 5709 5706 5702 5699 5697 5695 5693 5690 5687 5684 5681 5679 5676 5672 5667 5664 5661
5724 5732 5734 5738 5749 5753 5750 5749 5748 5747 5745 5745 5742 5737 5734 5730 5728 5725 5722 5720 5717 5715 5712 5708 5706 5703 5702 5700 5697 5693 5690 5689 5688 5685 5683 5680 5677 5673 5670 5667 5664 5660 5656 5651
5730 5735 5736 5737 5739 5743 5740 5741 5741 5739 5736 5734 5732 5730 5726 5721 5719 5716 5713 5711 5708 5706 5704 5700 5697 5694 5692 5691 5688 5685 5682 5681 5680 5678 5676 5674 5671 5667 5662 5658 5653 5650 5646 5642
5726 5726 5722 5724 5726 5730 5729 5731 5732 5731 5729 5726 5723 5721 5717 5714 5710 5707 5704 5703 5701 5699 5695 5692 5689 5687 5685 5684 5681 5677 5676 5674 5672 5671 5669 5667 5665 5662 5658 5653 5647 5643 5639 5634
5715 5716 5715 5717 5718 5719 5720 5720 5718 5717 5717 5714 5713 5710 5707 5703 5700 5699 5698 5697 5694 5690 5686 5684 5681 5679 5678 5676 5673 5671 5669 5667 5665 5663 5662 5660 5658 5656 5653 5648 5643 5639 5634 5629
5706 5708 5708 5706 5705 5707 5709 5708 5706 5706 5706 5704 5701 5699 5698 5696 5693 5691 5690 5689 5684 5680 5678 5675 5672 5672 5671 5669 5665 5664 5662 5659 5656 5656 5655 5653 5650 5647 5645 5641 5637 5632 5628 5623
5692 5692 5693 5692 5694 5697 5699 5700 5699 5698 5698 5696 5694 5692 5690 5687 5683 5682 5681 5680 5677 5674 5671 5668 5665 5665 5663 5661 5658 5656 5655 5653 5649 5648 5645 5643 5641 5639 5636 5633 5630 5626 5621 5617
5689 5688 5689 5687 5686 5687 5690 5691 5691 5690 5688 5688 5687 5684 5680 5677 5673 5671 5670 5669 5667 5665 5663 5660 5658 5657 5655 5654 5651 5649 5647 5645 5642 5639 5637 5634 5632 5630 5627 5625 5621 5618 5614 5611
5683 5682 5682 5681 5680 5679 5680 5682 5682 5682 5680 5679 5677 5673 5671 5669 5666 5663 5662 5660 5657 5654 5653 5652 5649 5648 5646 5645 5642 5641 5640 5637 5634 5632 5629 5625 5623 5621 5620 5617 5614 5611 5609 5605
5675 5675 5674 5674 5674 5672 5672 5673 5673 5672 5671 5670 5666 5664 5661 5660 5658 5655 5653 5650 5648 5647 5645 5643 5642 5640 5637 5636 5633 5633 5632 5630 5627 5624 5622 5619 5617 5614 5612 5610 5607 5605 5601 5598
5665 5665 5664 5664 5663 5664 5665 5664 5663 5661 5661 5660 5657 5654 5652 5651 5650 5647 5644 5641 5640 5639 5638 5635 5633 5630 5629 5626 5625 5625 5624 5622 5619 5616 5614 5611 5609 5607 5605 5602 5599 5597 5593 5591
5656 5655 5654 5654 5653 5652 5653 5654 5653 5652 5652 5650 5648 5646 5644 5642 5641 5639 5636 5633 5632 5629 5629 5629 5626 5622 5620 5618 5619 5618 5616 5614 5611 5609 5606 5603 5601 5599 5596 5594 5591 5589 5586 5584
5647 5646 5646 5644 5643 5643 5643 5644 5645 5644 5642 5641 5639 5637 5635 5634 5633 5630 5627 5627 5627 5623 5622 5619 5616 5613 5611 5612 5612 5611 5609 5607 5604 5601 5598 5596 5594 5592 5589 5586 5584 5581 5579 5577
5638 5637 5637 5637 5637 5635 5632 5633 5635 5636 5635 5634 5633 5631 5629 5627 5626 5625 5622 5619 5617 5615 5614 5610 5608 5606 5604 5605 5605 5603 5601 5599 5597 5594 5592 5589 5588 5585 5582 5579 5577 5575 5573 5571
5631 5630 5630 5629 5628 5627 5626 5626 5626 5626 5626 5626 5627 5626 5624 5622 5619 5617 5615 5613 5609 5607 5607 5604 5602 5600 5600 5600 5598 5596 5594 5592 5590 5588 5585 5583 5580 5577 5575 5573 5570 5568 5566 5564
5625 5625 5624 5624 5624 5622 5622 5622 5621 5620 5619 5618 5619 5619 5618 5616 5613 5611 5608 5606 5604 5601 5600 5598 5596 5594 5593 5592 5590 5588 5587 5585 5583 5582 5578 5576 5573 5570 5568 5566 5564 5561 5559 5556
5620 5620 5619 5619 5620 5619 5619 5618 5616 5615 5614 5613 5611 5611 5610 5608 5606 5603 5601 5599 5597 5595 5593 5591 5589 5588 5586 5584 5582 5580 5579 5577 5575 5573 5571 5568 5566 5563 5561 5558 5556 5553 5550 5548